DW1590 Weather Reports


Display with metric or nautical units.
time (UTC)temp
F
wind
direction
speed
MPH
gust
MPH
rain 1hr
in
rain 24hr
in
rain mn
in
humidity
%
barometer
mb
20260510230039 67 17 3.0 0.0 0.00 0.00 0.02 100 1013.0
20260510224536 67 330 2.0 0.0 0.00 0.00 0.02 100 1013.1
20260510223027 67 297 1.0 0.0 0.00 0.00 0.02 100 1013.0
20260510221523 68 355 1.0 0.0 0.00 0.00 0.02 100 1012.5
20260510220019 69 342 3.0 0.0 0.00 0.00 0.02 100 1012.7
20260510214514 70 332 2.0 0.0 0.00 0.00 0.02 25 1012.9
20260510213009 70 212 3.0 0.0 0.00 0.00 0.01 55 1012.7
20260510211505 71 237 5.0 0.0 0.00 0.00 0.00 61 1013.0
20260510210002 72 252 1.0 0.0 0.00 0.00 0.00 62 1012.2
20260510204557 72 243 4.0 0.0 0.00 0.00 0.00 61 1011.7
20260510203052 73 355 4.0 0.0 0.00 0.00 0.00 61 1011.4
20260510201554 74 291 4.0 0.0 0.00 0.00 0.00 60 1011.3
20260510200045 78 238 1.0 0.0 0.00 0.00 0.00 47 1011.1
20260510194542 79 276 1.0 0.0 0.00 0.00 0.00 45 1011.2
20260510193041 80 244 4.0 0.0 0.00 0.00 0.00 44 1011.4
20260510191532 80 183 1.0 0.0 0.00 0.00 0.00 45 1011.8
20260510190041 81 331 4.0 0.0 0.00 0.00 0.00 43 1011.8
20260510184521 81 228 4.0 0.0 0.00 0.00 0.00 46 1011.8
20260510183017 80 225 3.0 0.0 0.00 0.00 0.00 46 1011.8
20260510181512 78 235 3.0 0.0 0.00 0.00 0.00 47 1012.1
20260510180010 79 209 4.0 0.0 0.00 0.00 0.00 47 1012.2
20260510174505 80 336 4.0 0.0 0.00 0.00 0.00 46 1012.3
20260510173059 79 214 3.0 0.0 0.00 0.00 0.00 48 1012.5
20260510171604 79 282 4.0 0.0 0.00 0.00 0.00 50 1012.4
20260510170051 78 261 3.0 0.0 0.00 0.00 0.00 51 1012.5
20260510164602 77 234 4.0 0.0 0.00 0.00 0.00 50 1012.5
20260510163106 76 230 4.0 0.0 0.00 0.00 0.00 52 1012.7
20260510161539 75 281 1.0 0.0 0.00 0.00 0.00 55 1012.5
20260510160034 75 232 2.0 0.0 0.00 0.00 0.00 55 1012.7
20260510154531 74 265 3.0 0.0 0.00 0.00 0.00 57 1012.7
20260510153025 73 226 3.0 0.0 0.00 0.00 0.00 58 1012.7
20260510151523 72 263 5.0 0.0 0.00 0.00 0.00 58 1012.7
20260510150017 71 318 4.0 0.0 0.00 0.00 0.00 59 1012.7
20260510144514 70 251 4.0 0.0 0.00 0.00 0.00 58 1012.5
20260510143013 68 208 4.0 0.0 0.00 0.00 0.00 40 1012.3
20260510141503 66 292 2.0 0.0 0.00 0.00 0.00 100 1012.2
20260510140058 63 279 2.0 0.0 0.00 0.00 0.00 100 1012.3
20260510134557 62 257 2.0 0.0 0.00 0.00 0.00 100 1012.5
20260510133049 60 198 1.0 0.0 0.00 0.00 0.00 100 1012.4
20260510131553 59 250 1.0 0.0 0.00 0.00 0.00 100 1012.5
20260510130042 58 30 1.0 0.0 0.00 0.00 0.00 100 1012.3
20260510124537 57 254 0.0 0.0 0.00 0.00 0.00 100 1012.6
20260510123032 56 254 0.0 0.0 0.00 0.00 0.00 100 1012.8
20260510121527 55 324 0.0 0.0 0.00 0.00 0.00 100 1012.6
20260510120023 54 331 0.0 0.0 0.00 0.00 0.00 100 1012.6
20260510114521 54 331 2.0 0.0 0.00 0.00 0.00 100 1012.3
20260510113014 53 329 1.0 0.0 0.00 0.00 0.00 100 1011.9
20260510111509 52 326 0.0 0.0 0.00 0.00 0.00 100 1011.8
20260510110006 51 326 0.0 0.0 0.00 0.00 0.00 100 1011.6
20260510104501 51 326 0.0 0.0 0.00 0.00 0.00 100 1011.4
20260510103057 51 326 0.0 0.0 0.00 0.00 0.00 100 1011.1
20260510101555 51 326 0.0 0.0 0.00 0.00 0.00 100 1010.9
20260510100107 52 326 0.0 0.0 0.00 0.00 0.00 100 1010.7
20260510094555 52 326 0.0 0.0 0.00 0.00 0.00 100 1010.8
20260510093039 52 326 1.0 0.0 0.00 0.00 0.00 100 1010.8
20260510091535 52 308 1.0 0.0 0.00 0.00 0.00 100 1010.7
20260510090041 52 360 0.0 0.0 0.00 0.00 0.00 100 1010.5
20260510084527 52 360 0.0 0.0 0.00 0.00 0.00 100 1010.6
20260510083026 52 360 0.0 0.0 0.00 0.00 0.00 100 1010.5
20260510081517 52 360 0.0 0.0 0.00 0.00 0.00 100 1010.4
20260510080024 53 15 0.0 0.0 0.00 0.00 0.00 100 1010.3
20260510074511 53 53 0.0 0.0 0.00 0.00 0.00 100 1009.9
20260510073004 53 53 0.0 0.0 0.00 0.00 0.00 100 1009.8
20260510071600 54 53 0.0 0.0 0.00 0.00 0.00 100 1009.7
20260510070057 54 53 0.0 0.0 0.00 0.00 0.00 100 1009.8
20260510064553 54 54 0.0 0.0 0.00 0.00 0.00 100 1009.6
20260510063050 55 54 0.0 0.0 0.00 0.00 0.00 100 1009.5
20260510061544 55 54 0.0 0.0 0.00 0.00 0.00 100 1009.5
20260510060039 55 54 0.0 0.0 0.00 0.00 0.00 100 1009.4
20260510054535 56 54 0.0 0.0 0.00 0.00 0.00 100 1009.8
20260510053029 56 54 0.0 0.0 0.00 0.00 0.00 100 1009.6
20260510051525 57 54 0.0 0.0 0.00 0.00 0.00 100 1009.6
20260510050021 57 54 0.0 0.0 0.00 0.00 0.00 100 1009.6
20260510044527 58 54 0.0 0.0 0.00 0.00 0.00 100 1009.7
20260510043012 58 54 0.0 0.0 0.00 0.00 0.00 100 1009.7
20260510041512 59 54 0.0 0.0 0.00 0.00 0.00 100 1009.7
20260510040004 59 54 0.0 0.0 0.00 0.00 0.00 100 1009.6
20260510034601 59 54 0.0 0.0 0.00 0.00 0.00 100 1009.6
20260510033132 60 54 0.0 0.0 0.00 0.00 0.00 100 1009.6
20260510031603 60 54 0.0 0.0 0.00 0.00 0.00 100 1009.5
20260510030048 60 54 0.0 0.0 0.00 0.00 0.00 100 1009.5
20260510024541 60 84 1.0 0.0 0.00 0.00 0.00 100 1009.4
20260510023037 61 63 1.0 0.0 0.00 0.00 0.00 100 1009.4
20260510021534 62 36 1.0 0.0 0.00 0.00 0.00 100 1009.2
20260510020029 62 73 1.0 0.0 0.00 0.00 0.00 100 1009.1
20260510014523 63 66 1.0 0.0 0.00 0.00 0.00 100 1009.2
20260510013021 63 52 1.0 0.0 0.00 0.00 0.00 100 1008.8
20260510011532 64 60 1.0 0.0 0.00 0.00 0.00 4 1008.5
20260510010011 64 68 2.0 0.0 0.00 0.00 0.00 9 1008.3
20260510004509 64 78 1.0 0.0 0.00 0.00 0.00 8 1008.2
20260510003004 65 78 0.0 0.0 0.00 0.00 0.00 20 1008.1
20260510001502 66 81 1.0 0.0 0.00 0.00 0.00 31 1007.9
20260510000108 66 104 0.0 0.0 0.00 0.00 0.00 34 1007.8
20260509234601 68 84 0.0 0.0 0.00 0.00 0.00 46 1007.7
20260509233055 68 84 1.0 0.0 0.00 0.00 0.00 51 1007.6
20260509231554 68 71 1.0 0.0 0.00 0.00 0.00 54 1007.4